Preview of NWS' New Version of Forecast
This preview is not operational and should not be used for support decisions.
Latest weather observations around

Ottawa Municipal Airport (KOWI)

Using English Units (Switch to International System of Units)
Date/ Time (CDT) Wind (mph) Vis. (mi) Weather Sky Cond. Temp (°F) Rel. Humidity Wind Chill (°F) Heat Index (°F) Pressure Precip. (in)
Air Dwpt 6 hour Altimeter (inHg) Sea level (inHg) 1 hr 3 hr 6 hr
Max Min
Jun 24 10:55 WNW 10 10 Clear CLR 72 59     65%   71 29.87        
Jun 24 10:35 NW 10 10 Clear   70 59     69%     29.87        
Jun 24 10:15 NW 8 10 Clear   70 59     69%     29.86        
Jun 24 09:55 WNW 9 10 Clear CLR 68 59     73%     29.86        
Jun 24 09:35 WNW 10 10 Clear CLR 68 59     73%     29.86        
Jun 24 09:15 WNW 12 10 Clear CLR 66 59     78%     29.85        
Jun 24 08:55 NW 9 10 Clear CLR 66 59     78%     29.84        
Jun 24 08:35 WNW 9 10 Clear CLR 64 59     83%     29.84        
Jun 24 08:15 NW 13 10 Clear CLR 64 59     83%     29.84        
Jun 24 07:55 WNW 12 10 Clear CLR 63 59     88%     29.83        
Jun 24 07:35 WNW 7 10 Clear CLR 63 59     88%     29.82        
Jun 24 07:15 7 10 Clear   63 59     88%     29.81        
Jun 24 06:55 WNW 9 10 Clear   61 59     94%     29.82        
Jun 24 06:35 NW 9 10 Clear   61 59     94%     29.81        
Jun 24 06:15 NW 8 10 Clear   61 59     94%     29.81        
Jun 24 05:55 WNW 10 10 Mostly Cloudy BKN016 BKN075 63 59     88%     29.8        
Jun 24 05:35 NW 10 10 Cloudy OVC014 63 63     100%     29.8        
Jun 24 05:15 NW 10 10 Clear   64 63     94%     29.79        
Jun 24 04:55 NW 9 10 Cloudy OVC015 64 63     94%     29.78        
Jun 24 04:35 NW 10 10 Mostly Cloudy BKN013 BKN046 BKN055 64 64     100%     29.77        
Jun 24 04:15 NW 7 10 Mostly Cloudy FEW029 FEW039 BKN045 64 64     100%     29.77        
Jun 24 03:55 NW 6 10 Clear   66 66     100%     29.76        
Jun 24 03:35 NW 8 10 Cloudy BKN025 BKN045 OVC055 66 66     100%     29.76        
Jun 24 03:15 WNW 9 10 Clear   68 66     94%     29.77        
Jun 24 02:55 W 7 10 Mostly Cloudy BKN026 BKN035 66 66     100%     29.76        
Jun 24 02:35 W 7 10 Partly Cloudy FEW029 SCT034 68 68     100%     29.76        
Jun 24 02:15 W 6 10 Clear   68 68     100%     29.76        
Jun 24 01:55 WSW 7 10 Cloudy BKN028 OVC038 68 68     100%     29.77        
Jun 24 01:35 WSW 8 10 Cloudy BKN027 OVC034 68 68     100%     29.78        
Jun 24 01:15 WSW 8 10 Clear   68 68     100%     29.79        
Jun 24 00:55 SW 8 10 Clear CLR 68 68     100%     29.78        
Jun 24 00:35 SSW 9 10 Partly Cloudy SCT039 SCT044 68 68     100%     29.78        
Jun 24 00:15 SW 9 10 Clear   68 68     100%     29.79        
Jun 23 23:55 SW 8 10 Mostly Cloudy BKN038 68 68     100%     29.78        
Jun 23 23:35 SSW 8 10 Partly Cloudy SCT035 SCT041 68 68     100%     29.79        
Jun 23 23:15 SSW 7 10 Clear   68 68     100%     29.77        
Jun 23 22:55 S 9 10 Clear CLR 68 68     100%     29.74        
Jun 23 22:35 SSE 7 10 Partly Cloudy SCT038 SCT048 SCT055 68 68     100%     29.75        
Jun 23 22:15 SSW 5 10 Clear   68 68     100%     29.76        
Jun 23 21:55 S 6 10 Partly Cloudy FEW043 SCT070 68 68     100%     29.75        
Jun 23 21:35 S 6 10 Clear CLR 70 70     100%     29.75        
Jun 23 21:15 S 6 10 Clear   70 70     100%     29.75        
Jun 23 20:55 S 5 10 Clear CLR 70 70     100%     29.75        
Jun 23 20:35 SSE 5 10 Clear CLR 72 70     94%   73 29.74        
Jun 23 20:15 S 5 10 Clear   72 72     100%   73 29.74        
Jun 23 19:55 S 5 10 Clear CLR 73 72     94%   75 29.75        
Jun 23 19:35 S 6 10 Clear CLR 73 70     89%   75 29.75        
Jun 23 19:15 S 5 10 Clear   73 70     89%   75 29.75        
Jun 23 18:55 SW 5 10 Clear CLR 75 68     78%   76 29.74        
Jun 23 18:35 WSW 5 10 Clear CLR 75 68     78%   76 29.73        
Jun 23 18:15 WSW 6 10 Clear   75 68     78%   76 29.72        
Jun 23 17:55 W 7 10 Clear   75 66     74%   76 29.73        
Jun 23 17:35 W 7 10 Clear CLR 75 66     74%   76 29.74        
Jun 23 17:15 W 8 10 Clear CLR 75 68     78%   76 29.74        
Jun 23 16:55 W 8 10 Clear   77 66     69%   78 29.74        
Jun 23 16:35 W 7 10 Mostly Cloudy FEW022 BKN031 75 68     78%   76 29.75        
Jun 23 16:15 W 10 10 Clear   73 66     78%   74 29.77        
Jun 23 15:55 W 10 10 Clear   73 66     78%   74 29.77        
Jun 23 15:35 W 9 10 Cloudy BKN023 OVC029 73 66     78%   74 29.78        
Jun 23 15:15 WNW 9 10 Clear   72 66     83%   72 29.78        
Jun 23 14:55 WNW 10 10 Cloudy OVC019 72 66     83%   72 29.78        
Jun 23 14:35 WNW 13 10 Cloudy OVC018 70 66     88%     29.78        
Jun 23 14:15 W 10 10 Clear   70 66     88%     29.77        
Jun 23 13:55 W 8 10 Cloudy OVC014 70 66     88%     29.78        
Jun 23 13:35 W 7 10 Cloudy OVC013 68 66     94%     29.78        
Jun 23 13:15 WSW 6 10 Cloudy OVC012 68 66     94%     29.78        
Jun 23 12:55 SSW 6 10 Clear   68 66     94%     29.78        
Jun 23 12:35 S 8 10 Cloudy OVC010 68 66     94%     29.77        
Jun 23 12:15 SSE 8 10 Clear   68 66     94%     29.76        
Jun 23 11:55 SE 9 10 Clear   68 66     94%     29.75        
Jun 23 11:35 ESE 9 10 Clear CLR 66 66     100%     29.74        
Jun 23 11:15 SE 14 10 Clear   66 66     100%     29.74        
Jun 23 10:55 E 14 10 Clear   66 64     94%     29.72        
Jun 23 10:35 SE 12 10 Clear CLR 66 66     100%     29.77        
Jun 23 10:15 ENE 8 10 Clear CLR 66 64     94%     29.75        
Jun 23 09:55 ENE 13 10 Clear CLR 64 64     100%     29.75   0    
Jun 23 09:35 NE 10 10 Clear CLR 64 64     100%     29.77        
Jun 23 09:15 NW 12 10 Clear   64 64     100%     29.81        
Jun 23 08:55 NNE 14 9 Clear   64 64     100%     29.78        
Jun 23 08:35 NNE 15 8 Cloudy SCT034 BKN045 OVC060 64 64     100%     29.79        
Jun 23 08:15 N 12 3 Clear   64 64     100%     29.84        
Jun 23 07:55 NW 8 4 and Fog/Mist BKN030 OVC043 64 64     100%     29.9   0    
Jun 23 07:35 W 15 6 Clear   64 64     100%              
Jun 23 07:15 N 13 3 Clear   64 63     94%     29.84        
Jun 23 06:55 NNW 12 1.25 Clear   64 64     100%     29.85        
Jun 23 06:35   0.5 Thunderstorms OVC003 64 64     100%     29.84        
Jun 23 06:15 NW 18 2.5 Clear   66 66     100%     29.83        
Jun 23 05:55 ESE 6 8 Clear   66 66     100%     29.8        
Jun 23 05:35 ESE 12 10 Clear   66 66     100%     29.79        
Jun 23 05:15 ESE 10 10 Clear   66 66     100%     29.81        
Jun 23 04:55 ESE 14 10 Cloudy FEW008 SCT047 OVC055 66 66     100%     29.82   0    
Jun 23 04:35 E 13 10 Cloudy BKN008 BKN015 OVC055 66 66     100%     29.82        
Jun 23 04:15 ESE 15 10 Clear   66 66     100%     29.82        
Jun 23 03:55 ESE 17 10 Cloudy FEW008 OVC045 66 66     100%     29.83        
Jun 23 03:35 ESE 16 9 Cloudy BKN007 OVC044 66 66     100%     29.85        
Jun 23 03:15 E 15 10 Cloudy OVC007 66 66     100%     29.86        
Jun 23 02:55 E 14 10 Cloudy BKN007 BKN034 OVC065 66 66     100%     29.87   0    
Jun 23 02:35 E 14 10   FEW007 BKN030 OVC120 66 66     100%     29.89        
Jun 23 02:15 E 16 5 Clear   66 66     100%     29.91        
Jun 23 01:55 ESE 16 3 and Fog/Mist SCT005 BKN029 OVC060 66 66     100%     29.95   0    
Jun 23 01:35 E 15 9   FEW004 SCT035 BKN055 66 66     100%     29.92        
Jun 23 01:15 ESE 18 7 Clear   66 66     100%     29.94        
Jun 23 00:55 ESE 13 6 and Fog/Mist BKN033 OVC041 66 66     100%     29.97   0    
Jun 23 00:35 E 15 6 and Fog/Mist BKN034 BKN044 OVC075 66 66     100%     29.91        
Jun 23 00:15 E 14 8 Clear   66 66     100%     29.92        
Jun 22 23:55 ENE 9 10   FEW004 SCT050 BKN070 66 66     100%     29.93   0    
Jun 22 23:35 NNE 12 4 and Fog/Mist BKN004 BKN032 OVC050 66 66     100%     29.93        
Jun 22 23:15 NNE 10 1.25 Clear   66 66     100%     29.97        
Jun 22 22:55 N 14 1.5 Clear   66 64     94%     29.95        
Jun 22 22:35 N 15 1 Clear   66 64     94%     29.93        
Jun 22 22:15   1 Clear   66 64     94%     29.9        
Notice The following observation data may not be complete
Jun 22 21:55   0.5 Thunderstorms     66      %         1    
Notice The following observation data may not be complete
Jun 22 21:35     Clear            %              
Jun 22 21:15 S 9 7 Clear   79 79     100%   83 29.8        
Jun 22 20:55 S 8 1.5 Thunderstorms and Light Rain SCT004 BKN027 OVC055 79 79     100%   83 29.78   0    
Jun 22 20:35 S 13 10   SCT055 BKN075 OVC090 82 77     84%   91 29.76        
Jun 22 20:15 S 9 8 Clear   82 79     89%   92 29.77        
Jun 22 19:55 S 14 8   FEW027 SCT048 BKN055 82 77     84%   91 29.75        
Jun 22 19:35 S 13 9 Mostly Cloudy FEW026 SCT033 BKN055 82 79     89%   92 29.75        
Jun 22 19:15 S 12 9 Clear   84 79     84%   96 29.76        
Jun 22 18:55 S 9 9 Cloudy BKN027 OVC037 84 79     84%   96 29.77        
Jun 22 18:35 S 14 9 Cloudy BKN028 BKN038 OVC070 84 79     84%   96 29.76        
Jun 22 18:15 S 13 9 Clear   84 79     84%   96 29.76        
Jun 22 17:55 S 14 9 Mostly Cloudy FEW024 BKN065 84 77     79%   94 29.77        
Jun 22 17:35 S 16 9 Mostly Clear FEW060 84 77     79%   94 29.78        
Jun 22 17:15 SSE 17 10 Clear   84 77     79%   94 29.79        
Jun 22 16:55 S 17 10 Mostly Clear FEW060 84 77     79%   94 29.81        
Jun 22 16:35 S 21 10 Partly Cloudy and Windy FEW027 FEW034 SCT070 86 77     75%   97 29.82        
Jun 22 16:15 S 21 9 Clear and Windy   86 77     75%   97 29.82        
Jun 22 15:55 S 18 10 Mostly Cloudy SCT029 SCT039 BKN055 88 77     70%   100 29.83        
Jun 22 15:35 SSE 14 9 Partly Cloudy FEW030 FEW041 SCT055 90 79     71%   105 29.83        
Jun 22 15:15 S 17 10 Mostly Cloudy FEW030 SCT055 BKN065 90 79     71%   105 29.83        
Jun 22 14:55 S 17 10 Mostly Cloudy FEW030 FEW041 BKN055 90 79     71%   105 29.83        
Jun 22 14:35 S 20 10 Clear   88 79     75%   102 29.83        
Jun 22 14:15 S 16 10 Clear   88 79     75%   102 29.83        
Jun 22 13:55 S 12 10 Mostly Cloudy BKN026 BKN039 BKN050 88 79     75%   102 29.84        
Jun 22 13:35 SSE 13 10 Cloudy BKN025 BKN038 OVC046 86 79     79%   99 29.84        
Jun 22 13:15 S 12 10 Clear   84 77     79%   94 29.85        
Jun 22 12:55 SSE 13 10 Cloudy BKN027 OVC033 86 77     75%   97 29.85        
Jun 22 12:35 SE 9 10 Mostly Cloudy BKN026 BKN030 86 77     75%   97 29.86        
Jun 22 12:15 ESE 9 10 Clear   86 77     75%   97 29.86        
Jun 22 11:55 E 10 10 Partly Cloudy SCT027 84 75     74%   92 29.85        
Jun 22 11:35 E 12 10 Clear   82 72     70%   87 29.85        
Jun 22 11:15 E 13 10 Clear   81 72     74%   85 29.86        
Jun 22 10:55 E 13 10 Mostly Clear FEW021 82 70     66%   86 29.86        
Jun 22 10:35 E 9 10 Clear CLR 81 70     70%   84 29.86        
Jun 22 10:15 ENE 9 10 Clear CLR 81 70     70%   84 29.87        
Jun 22 09:55 ENE 7 10 Clear CLR 79 70     74%   80 29.87        
Jun 22 09:35 NNE 5 10 Clear CLR 77 68     74%   78 29.88        
Jun 22 09:15 Calm 10 Clear   77 68     74%   78 29.87        
Jun 22 08:55 Calm 10 Clear   75 68     78%   76 29.86        
Jun 22 08:35 3 10 Clear CLR 75 68     78%   76 29.86        
Jun 22 08:15 SE 13 10 Clear   73 68     83%   74 29.83        
Jun 22 07:55 SE 6 10 Clear CLR 72 68     88%   73 29.8        
Jun 22 07:35 E 13 10 Clear CLR 73 68     83%   74 29.77        
Jun 22 07:15 ENE 15 10 Clear   72 70     94%   73 29.76        
Jun 22 06:55   10   FEW060 FEW070 SCT090 72 68     88%   73 29.81        
Jun 22 06:35   10   FEW060 FEW075 FEW090 72 68     88%   73 29.84        
Jun 22 06:15 W 13 10 Clear   73 68     83%   74 29.86        
Jun 22 05:55   10 Mostly Cloudy FEW038 FEW055 BKN100 75 68     78%   76 29.86        
Jun 22 05:35 WSW 8 8 Mostly Cloudy BKN100 77 77     100%   79 29.84        
Jun 22 05:15 S 8 8 Clear   77 77     100%   79 29.8        
Jun 22 04:55 SSW 6 10 Clear   77 77     100%   79 29.79        
Jun 22 04:35 3 5 Thunderstorms SCT007 BKN026 OVC120 77 77     100%   79 29.8        
Jun 22 04:15 SSW 8 2.5 Clear   79 77     94%   83 29.79        
Jun 22 03:55 S 9 10 Clear CLR 79 77     94%   83 29.76        
Jun 22 03:35 S 13 10 Clear CLR 79 77     94%   83 29.75        
Jun 22 03:15 SSW 9 10 Clear   79 77     94%   83 29.73        
Jun 22 02:55   10 Clear CLR 79 77     94%   83 29.73        
Jun 22 02:35 SSW 15 10 Clear CLR 79 77     94%   83 29.74        
Jun 22 02:15 SSW 16 10 Clear   79 79     100%   83 29.73        
Jun 22 01:55 S 10 10 Clear CLR 79 79     100%   83 29.74        
Jun 22 01:35 S 6 7 Partly Cloudy FEW027 SCT050 SCT100 79 79     100%   83 29.75        
Jun 22 01:15 S 10 10 Clear   81 77     89%   87 29.73        
Jun 22 00:55 S 9 10 Mostly Clear FEW055 81 77     89%   87 29.74        
Jun 22 00:35 S 9 10 Partly Cloudy SCT050 81 77     89%   87 29.74        
Jun 22 00:15 S 10 10 Clear   81 77     89%   87 29.74        
Jun 21 23:55 S 10 10 Mostly Clear FEW050 FEW055 81 77     89%   87 29.75        
Jun 21 23:35 S 9 10 Clear CLR 81 77     89%   87 29.74        
Jun 21 23:15 SSE 8 10 Mostly Clear FEW050 79 77     94%   83 29.74        
Jun 21 22:55 SSE 8 10   FEW048 79 77     94%   83 29.74        
Jun 21 22:35 SE 9 10 Clear CLR 79 77     94%   83 29.73        
Jun 21 22:15 SE 8 10 Clear   79 77     94%   83 29.73        
Jun 21 21:55 SE 8 10 Clear   79 77     94%   83 29.72        
Jun 21 21:35 SSE 10 10 Mostly Clear FEW050 79 77     94%   83 29.69        
Jun 21 21:15 SSE 13 10 Clear CLR 79 77     94%   83 29.69        
Jun 21 20:55 SE 13 10 Clear   81 77     89%   87 29.69        
Jun 21 20:35 SE 13 10 Clear CLR 81 77     89%   87 29.68        
Jun 21 20:15 SE 12 10 Clear   81 77     89%   87 29.68        
Jun 21 19:55 SE 14 10 Clear CLR 82 77     84%   91 29.67        
Jun 21 19:35 SSE 14 10 Clear CLR 82 77     84%   91 29.67        
Jun 21 19:15 SE 12 10 Clear   82 77     84%   91 29.67        
Jun 21 18:55 SSE 13 10 Clear CLR 82 75     79%   89 29.68        
Jun 21 18:35 SSE 14 10 Clear CLR 82 75     79%   89 29.68        
Jun 21 18:15 SE 16 10 Clear CLR 82 75     79%   89 29.68        
Jun 21 17:55 SSE 15 10 Clear CLR 82 75     79%   89 29.69        
Jun 21 17:35 SSE 16 10 Clear CLR 82 75     79%   89 29.68        
Jun 21 17:15 SSE 15 10 Clear CLR 81 73     79%   85 29.68        
Jun 21 16:55 SE 16 10 Clear   81 73     79%   85 29.68        
May 14 22:00 E 13 10 Clear   72 59     65%   71 29.82        
May 14 21:20 SW 14 10 Clear   72 59     65%   71 29.83        
May 14 20:40   6 Clear   70 63     78%     29.83        
May 14 17:20 SSW 14 10 Clear   72 59     65%   71 29.82        
May 14 15:40 S 7 10 Clear   81 70     70%   84 29.84        
May 14 14:00 WSW 7 9 Clear   86 68     55%   89 29.88        
May 14 11:20 SSW 13 9 Clear   81 68     66%   83 29.92        
May 14 03:20 S 7 10 Clear   70 64     83%     29.9        
May 13 21:20 SSE 10 10 Clear   75 66     74%   76 29.89        
May 13 05:20 S 7 9 Clear   66 64     94%     29.95        
May 12 08:00 S 12 10 Clear   72 64     78%   72 29.86        
May 12 03:00 S 14 10 Clear   73 64     73%   74 29.83        
May 12 00:00 S 13 10 Clear   75 64     69%   76 29.82        
May 11 21:20 S 13 10 Clear   75 63     65%   75 29.76        
May 11 19:40 S 16 9 Clear   81 64     58%   82 29.72